Regional Weather Roundup
Issued by NWS

Home | Current Version | Previous Version | Graphics & Text | Print | Product List | Glossary On
Versions: 1 2 3 4 5 6 7 8 9 10 11 12 13 14 15 16 17 18 19 20 21 22 23 24 25 26 27 28 29 30 31 32 33 34 35 36 37 38 39 40 41 42 43 44 45 46 47 48 49 50
000
ASUS43 KBIS 290710
RWRND

NORTH DAKOTA REGIONAL WEATHER ROUNDUP
NATIONAL WEATHER SERVICE BISMARCK ND
200 AM CDT WED JUL 29 2015

NOTE: "FAIR" INDICATES FEW OR NO CLOUDS BELOW 12,000 FEET WITH NO
SIGNIFICANT WEATHER AND/OR OBSTRUCTIONS TO VISIBILITY.


NDZ001>003-009>011-017-290800-
NORTHWEST NORTH DAKOTA

CITY           SKY/WX    TMP DP  RH WIND       PRES   REMARKS
WILLISTON      MOCLDY    61  51  70 W15       29.90R
MINOT          LGT RAIN  64  49  57 W31G46    29.74R
MINOT AFB      CLOUDY    63  54  73 W25G37    29.72R
$$

NDZ018>021-031>035-040>046-290800-
SOUTHWEST NORTH DAKOTA

CITY           SKY/WX    TMP DP  RH WIND       PRES   REMARKS
BISMARCK       CLEAR     61  49  64 W16G26    29.90R
DICKINSON      PTCLDY    57  45  64 W16       29.97R
GARRISON         N/A     61  51  70 W21G30    29.83R
HETTINGER ARPT CLEAR     51  42  71 W9        30.06R
$$

NDZ004>008-012>016-024-026-027-054-290800-
NORTHEAST NORTH DAKOTA

CITY           SKY/WX    TMP DP  RH WIND       PRES   REMARKS
GRAND FORKS    CLOUDY    64  54  69 W22G35    29.56R
GRND FRKS AFB  CLOUDY    64  54  70 W21G33    29.56R
DEVILS LAKE    CLOUDY    61  50  67 W35G55    29.58R
$$

NDZ022-023-025-028>030-036>039-047>053-290800-
SOUTHEAST NORTH DAKOTA

CITY           SKY/WX    TMP DP  RH WIND       PRES   REMARKS
FARGO          CLOUDY    66  50  56 W26G32    29.73S
JAMESTOWN      PTCLDY    63  48  58 W23G33    29.77R
$$




USA.gov is the U.S. government's official web portal to all federal, state and local government web resources and services.